Location: Pine Mountain Observatory
(43.7910°N, 120.9377°W)
Time: 15:01:52
(UTC-07:00)

Explorer 11/Cluster Stage 4 - Pass Details

Date: 31 May 2019
Orbit: 467 x 1260 km, 28.8° (Epoch: 24 June)

Event Time Altitude Azimuth Distance (km) Brightness Sun altitude
Rises 00:05:12 0° 216° (SW) 4,151 - -23.1°
Reaches altitude 10° 00:09:35 10° 196° (SSW) 3,105 - -23.3°
Maximum altitude 00:13:45 15° 164° (SSE) 2,602 - -23.4°
Drops below altitude 10° 00:17:38 10° 130° (SE) 2,856 - -23.6°
Sets 00:21:23 0° 109° (ESE) 3,648 - -23.7°
